KOREASAT 5 (MUGUNGWHA 5)

Last updated on Tue Sep 16 2025 00:02:46 GMT+0000 (Coordinated Universal Time)

1 29349U 06034A 25258.40669642 -.00000374 00000+0 00000+0 0 9992 2 29349 1.0684 86.8372 0002016 134.7936 32.4582 1.00270662 38564
UTC large
Height (km)
Speed (km/s)
/
Latitude / Longitude
Inclination (degrees)
Orbital Period (minutes)
Azimuth
Elevation
Range (km)
Doppler Factor

Next 0 passes for location: London (51.5072 / 0.1276)

Sorry there are no passes over London.